Oakland, CA

3:03 AM PST on December 12, 2019 (GMT -0800)
Metro Oakland International

Weather History for KOAK - October, 2019

Change the Weather History Date:

Saturday, October 12, 2019

  Actual Average Record
Temperature  
Mean Temperature 62 °F 61 °F  
Max Temperature 76 °F 70 °F 91 °F (2010)
Min Temperature 47 °F 52 °F 45 °F (2017)
Degree Days  
Heating Degree Days 3 4  
Month to date heating degree days 35 43  
Since 1 July heating degree days 65 243  
Cooling Degree Days 0 1  
Month to date cooling degree days 9 12  
Year to date cooling degree days 373 137  
Growing Degree Days 12 (Base 50)    
Moisture  
Dew Point 41 °F    
Average Humidity 48    
Maximum Humidity 66    
Minimum Humidity 29    
Precipitation  
Precipitation 0.00 in 0.03 in 1.32 in (1962)
Month to date precipitation 0.00 0.29  
Year to date precipitation 15.94 13.79  
Sea Level Pressure  
Sea Level Pressure 29.90 in    
Wind  
Wind Speed 5 mph (NNW)    
Max Wind Speed 13 mph    
Max Gust Speed 17 mph    
Visibility 10 miles    
Events      
T = Trace of Precipitation, MM = Missing Value Source: NWS Daily Summary

Daily Weather History Graph

Daily Weather History Graph

Search for Another Location

Airport or City:

Astronomy

Oct. 12, 2019 Rise Set
Actual Time 7:14 AM PDT 6:35 PM PDT
Civil Twilight 6:47 AM PDT 7:02 PM PDT
Nautical Twilight 6:17 AM PDT 7:32 PM PDT
Astronomical Twilight 5:47 AM PDT 8:02 PM PDT
Moon 6:32 PM PDT 5:59 AM PDT
Length of Visible Light 12h 14m
Length of Day
11h 21m
Waxing Gibbous, 99% of the Moon is Illuminated
Oct 12
Waxing Gibbous
Oct 13
Full
Oct 21
Last Quarter
Oct 27
New
Nov 4
First Quarter

Hourly Weather History & Observations

Time (PDT) Temp. Dew Point Humidity Pressure Visibility Wind Dir Wind Speed Gust Speed Precip Events Conditions
12:53 AM 55.9 °F 37.9 °F 51% 29.94 in 10.0 mi Calm Calm - N/A   Clear
1:53 AM 51.1 °F 35.1 °F 54% 29.95 in 10.0 mi NE 3.5 mph - N/A   Clear
2:53 AM 52.0 °F 35.1 °F 53% 29.93 in 10.0 mi ENE 3.5 mph - N/A   Clear
3:53 AM 52.0 °F 35.1 °F 53% 29.92 in 10.0 mi NE 4.6 mph - N/A   Clear
4:53 AM 51.1 °F 35.1 °F 54% 29.91 in 10.0 mi NE 4.6 mph - N/A   Clear
5:53 AM 48.9 °F 35.1 °F 59% 29.92 in 10.0 mi Calm Calm - N/A   Clear
6:53 AM 48.9 °F 37.0 °F 64% 29.93 in 10.0 mi NE 3.5 mph - N/A   Partly Cloudy
7:53 AM 50.0 °F 36.0 °F 59% 29.94 in 10.0 mi NE 4.6 mph - N/A   Partly Cloudy
8:53 AM 60.1 °F 37.9 °F 44% 29.94 in 10.0 mi Calm Calm - N/A   Partly Cloudy
9:53 AM 63.0 °F 39.0 °F 41% 29.94 in 10.0 mi SW 3.5 mph - N/A   Partly Cloudy
10:53 AM 64.9 °F 46.0 °F 50% 29.94 in 10.0 mi WSW 4.6 mph - N/A   Partly Cloudy
11:53 AM 68.0 °F 45.0 °F 43% 29.94 in 10.0 mi WNW 6.9 mph - N/A   Partly Cloudy
12:53 PM 71.1 °F 39.9 °F 32% 29.92 in 10.0 mi WNW 10.4 mph - N/A   Partly Cloudy
1:53 PM 73.9 °F 41.0 °F 30% 29.89 in 10.0 mi NW 10.4 mph - N/A   Scattered Clouds
2:53 PM 75.0 °F 41.0 °F 29% 29.87 in 10.0 mi NW 11.5 mph - N/A   Mostly Cloudy
3:53 PM 75.9 °F 44.1 °F 32% 29.86 in 10.0 mi WNW 9.2 mph - N/A   Mostly Cloudy
4:53 PM 73.0 °F 48.9 °F 42% 29.85 in 10.0 mi WNW 9.2 mph - N/A   Mostly Cloudy
5:53 PM 71.1 °F 46.0 °F 41% 29.84 in 10.0 mi NW 8.1 mph - N/A   Mostly Cloudy
6:53 PM 66.0 °F 45.0 °F 47% 29.84 in 10.0 mi WNW 9.2 mph - N/A   Mostly Cloudy
7:53 PM 64.0 °F 44.1 °F 48% 29.86 in 10.0 mi WNW 9.2 mph - N/A   Scattered Clouds
8:53 PM 60.1 °F 45.0 °F 57% 29.87 in 10.0 mi Calm Calm - N/A   Scattered Clouds
9:53 PM 59.0 °F 42.1 °F 53% 29.87 in 10.0 mi Calm Calm - N/A   Mostly Cloudy
10:53 PM 57.9 °F 43.0 °F 58% 29.87 in 10.0 mi Calm Calm - N/A   Mostly Cloudy
11:53 PM 57.9 °F 44.1 °F 60% 29.87 in 10.0 mi Calm Calm - N/A   Mostly Cloudy